Fort Lauderdale, FL (33309)

6:30 PM EDT on August 02, 2015 (GMT -0400)
Ft. Lauderdale Executive Airport | | Change Station
CLOSE
Current Station
Personal Weather Station
Location: Ft. Lauderdale, FL
Elevation: 30 ft
Nearby Weather Stations

Elev 30 ft 26.20 °N, 80.18 °W | Updated 4 minutes ago

Light Rain
Light Rain
73.3 °F
Feels Like 71 °F
N
2.0
Wind Variable Wind from South
Gusts 14.0 mph

Today
High -- | Low -- °F
--% Chance of Precip.
Yesterday
High -- | Low -- °F
Precip. -- in
6:46 AM 8:06 PM
Waning Gibbous, 91% visible
Pressure 29.98 in
Visibility 10.0 miles
Clouds Scattered Clouds 2100 ft
Scattered Clouds 4000 ft
Overcast 9500 ft
Heat Index 71 °F
Dew Point 70 °F
Humidity 90%
Rainfall 0.00 in
Snow Depth Not available.
UV 0.0 out of 12
Pollen 3.00 out of 12
Air Quality Not available.
Flu Activity Not available.
SPECI KFXE 022225Z 28012KT 10SM -RA SCT021 SCT040 OVC095 23/21 A2998 RMK AO2 PK WND 22026/2156 WSHFT 2210 P0038 T02280206

More Conditions Fewer Conditions

Pressure 29.98 in
Visibility 10.0 miles
Clouds Scattered Clouds 2100 ft
Scattered Clouds 4000 ft
Overcast 9500 ft
Heat Index 71 °F
Dew Point 70 °F
Humidity 90%
Rainfall 0.00 in
Snow Depth Not available.
UV 0.0 out of 12
Pollen 3.00 out of 12
Air Quality Not available.
Flu Activity Not available.
SPECI KFXE 022225Z 28012KT 10SM -RA SCT021 SCT040 OVC095 23/21 A2998 RMK AO2 PK WND 22026/2156 WSHFT 2210 P0038 T02280206

More Conditions Fewer Conditions

Nowcast | as of 5:20 PM EDT on August 2, 2015

Scattered showers and thunderstorms will move north at 15 to 20 mph and affect parts of Southeast Florida into the early evening hours. While most of the stronger storms will be over The Everglades, additional showers and thunderstorms will move over the Metro areas mainly from northern Miami-Dade County through the Palm beaches. Gusty winds of 30 to 40 mph, occasional lightning and heavy rain can be expected with the stronger storms.

×

10-Day Weather Forecast

×

Almanac

Astronomy

Aug. 02, 2015 Rise Set
Actual Time
Civil Twilight
Nautical Twilight
Astronomical Twilight
Moon
Length of Visible Light
Length of Day
Tomorrow will be .
, % of the Moon is Illuminated

Today's Extremes

State Highs State Lows

Community

WunderPhotos

Upload Photos

1,843,400 photos uploaded!

WunderBlogs® & News

Nearby

Air Quality

  Air Quality AQ Index Pollutant
Not available.

Snow Depth

Station Depth Elevation

Earthquake Activity

City Distance Mag. Time & Date
Minimum magnitude displayed is 2.5.

Coastal Water Temperatures

Place Temperature

Stations

Nearby Weather Stations

Station Location Temp. Windchill Dew Point Humidity Wind Precip. Elev Updated Type